^^
Datos históricos de la estación: Murcia-Puente Tocinos
Diario Informe para Abril 23, 2019 Unidades:  Métrico    Inglés   Ambas
Diario Semanal Mensual Anual Configurable
  Máximo: Mínimo: Media:
Temperatura: 21.2 °C 12.8 °C 16.2 °C
Punto de rocio: 11.7 °C 4.8 °C 10.1 °C
Humedad: 89% 43% 69%
Velocidad viento: 22.5km/h 0.0km/h 7.4km/h
Racha viento: 37.0km/h - -
Viento- - SW
Presión: 1003.9 hPa 997.2 hPa -
Precipitación: 0.8 mm    
Historical Graphs
 
 
Tabla de datos para Abril 23, 2019
Hora Temperatura Punto de rocio Presión Viento Velocidad viento Racha viento Humedad Intensidad lluvia(por hora) Nubes
00:05 15.6 °C 11.4 °C 999.6 hPa South 8.0 km/h 11.3 km/h 76% 0.0 mm RA
00:09 15.4 °C 11.4 °C 999.6 hPa SSW 6.4 km/h 9.3 km/h 77% 0.0 mm RA
00:15 15.3 °C 11.3 °C 999.6 hPa SSW 8.0 km/h 11.3 km/h 77% 0.0 mm CLR
00:19 15.3 °C 11.3 °C 999.6 hPa WSW 6.4 km/h 7.4 km/h 77% 0.0 mm CLR
00:25 15.2 °C 11.2 °C 999.6 hPa WSW 6.4 km/h 9.3 km/h 77% 0.0 mm CLR
00:29 15.2 °C 11.2 °C 999.6 hPa WSW 5.0 km/h 5.6 km/h 77% 0.0 mm CLR
00:34 15.2 °C 11.4 °C 999.5 hPa SSW 5.0 km/h 5.6 km/h 78% 0.0 mm CLR
00:39 15.2 °C 11.4 °C 999.5 hPa SSE 3.9 km/h 5.6 km/h 78% 0.0 mm CLR
00:44 15.1 °C 11.5 °C 999.5 hPa SE 3.9 km/h 3.7 km/h 79% 0.0 mm CLR
00:49 14.9 °C 11.3 °C 999.3 hPa SE 2.9 km/h   79% 0.0 mm CLR
00:55 14.8 °C 11.4 °C 999.3 hPa SE 2.9 km/h 7.4 km/h 80% 0.0 mm CLR
00:59 14.8 °C 11.4 °C 999.3 hPa SW 3.2 km/h 7.4 km/h 80% 0.0 mm CLR
01:05 14.8 °C 11.4 °C 999.2 hPa SW 3.2 km/h 7.4 km/h 80% 0.0 mm CLR
01:09 14.7 °C 11.3 °C 999.2 hPa WSW 3.2 km/h 5.6 km/h 80% 0.0 mm CLR
01:15 14.7 °C 11.3 °C 999.2 hPa WSW 3.2 km/h 8.4 km/h 80% 0.0 mm CLR
01:19 14.6 °C 11.2 °C 999.2 hPa West 3.9 km/h 7.4 km/h 80% 0.0 mm CLR
01:24 14.5 °C 11.1 °C 999.2 hPa West 3.9 km/h 5.6 km/h 80% 0.0 mm CLR
01:29 14.4 °C 11.2 °C 999.2 hPa West 3.9 km/h 5.6 km/h 81% 0.0 mm CLR
01:35 14.3 °C 11.1 °C 999.2 hPa West 3.2 km/h 8.0 km/h 81% 0.0 mm CLR
01:39 14.3 °C 11.3 °C 999.2 hPa West 2.9 km/h 1.9 km/h 82% 0.0 mm CLR
01:45 14.2 °C 11.2 °C 999.2 hPa West 2.9 km/h   82% 0.0 mm CLR
01:49 14.2 °C 11.2 °C 998.9 hPa Calm     82% 0.0 mm CLR
01:55 14.1 °C 11.1 °C 998.9 hPa Calm     82% 0.0 mm CLR
01:59 14.0 °C 11.2 °C 998.9 hPa Calm     83% 0.0 mm CLR
02:05 13.9 °C 11.1 °C 998.9 hPa Calm     83% 0.0 mm CLR
02:09 13.9 °C 11.2 °C 998.9 hPa Calm   3.9 km/h 84% 0.0 mm CLR
02:15 13.9 °C 11.2 °C 998.9 hPa Calm   5.8 km/h 84% 0.0 mm CLR
02:19 13.9 °C 11.2 °C 998.7 hPa WSW 3.9 km/h 7.4 km/h 84% 0.0 mm CLR
02:25 13.8 °C 11.2 °C 998.7 hPa WSW 3.2 km/h 6.4 km/h 84% 0.0 mm CLR
02:29 13.9 °C 11.2 °C 998.7 hPa South 2.3 km/h 5.6 km/h 84% 0.0 mm CLR
02:34 13.9 °C 11.2 °C 998.7 hPa SSW 2.3 km/h 7.4 km/h 84% 0.0 mm CLR
02:39 13.9 °C 11.2 °C 998.7 hPa SSW 3.9 km/h 7.4 km/h 84% 0.0 mm CLR
02:45 13.9 °C 11.2 °C 998.7 hPa SSW 3.2 km/h 8.0 km/h 84% 0.0 mm CLR
02:49 13.9 °C 11.2 °C 998.7 hPa SSW 2.3 km/h   84% 0.0 mm CLR
02:55 13.9 °C 11.2 °C 998.7 hPa SSW 2.3 km/h 3.7 km/h 84% 0.0 mm CLR
03:00 13.9 °C 11.2 °C 998.7 hPa Calm   6.4 km/h 84% 0.0 mm CLR
03:05 13.9 °C 11.2 °C 998.5 hPa Calm   8.0 km/h 84% 0.0 mm CLR
03:09 13.7 °C 11.2 °C 998.5 hPa SE 4.7 km/h 7.4 km/h 85% 0.0 mm CLR
03:15 13.5 °C 11.0 °C 998.5 hPa SE 4.7 km/h 7.4 km/h 85% 0.0 mm CLR
03:19 13.4 °C 11.1 °C 998.2 hPa SE 4.7 km/h 7.4 km/h 86% 0.0 mm CLR
03:25 13.3 °C 11.0 °C 998.2 hPa SE 3.2 km/h 8.0 km/h 86% 0.0 mm CLR
03:29 13.3 °C 11.2 °C 998.2 hPa SE 3.2 km/h   87% 0.0 mm CLR
03:35 13.3 °C 11.2 °C 998.1 hPa SE 3.2 km/h   87% 0.0 mm CLR
03:39 13.3 °C 11.2 °C 998.1 hPa Calm     87% 0.0 mm CLR
03:45 13.4 °C 11.3 °C 998.1 hPa Calm   6.4 km/h 87% 0.0 mm CLR
03:49 13.4 °C 11.3 °C 998.0 hPa Calm   5.8 km/h 87% 0.0 mm CLR
03:55 13.4 °C 11.1 °C 998.0 hPa Calm   4.8 km/h 86% 0.0 mm CLR
03:59 13.4 °C 11.1 °C 998.0 hPa Calm   3.9 km/h 86% 0.0 mm CLR
04:05 13.5 °C 11.2 °C 997.9 hPa Calm   8.0 km/h 86% 0.0 mm CLR
04:09 13.6 °C 11.3 °C 997.9 hPa South 3.9 km/h 7.4 km/h 86% 0.0 mm CLR
04:15 13.6 °C 11.1 °C 997.9 hPa SSE 3.2 km/h 9.7 km/h 85% 0.0 mm CLR
04:19 13.6 °C 11.1 °C 997.8 hPa SSE 5.8 km/h 8.4 km/h 85% 0.0 mm CLR
04:25 13.6 °C 11.1 °C 997.8 hPa South 4.8 km/h 12.9 km/h 85% 0.0 mm CLR
04:29 13.6 °C 11.1 °C 997.8 hPa South 7.6 km/h 9.5 km/h 85% 0.0 mm CLR
04:35 13.6 °C 11.1 °C 997.6 hPa South 8.0 km/h 9.7 km/h 85% 0.0 mm CLR
04:39 13.7 °C 11.1 °C 997.6 hPa South 7.6 km/h 11.1 km/h 84% 0.0 mm CLR
04:45 13.7 °C 11.1 °C 997.6 hPa South 8.0 km/h 11.3 km/h 84% 0.0 mm CLR
04:49 13.7 °C 11.1 °C 997.7 hPa South 8.7 km/h 14.8 km/h 84% 0.0 mm CLR
04:55 13.8 °C 11.2 °C 997.7 hPa SSW 8.7 km/h 9.3 km/h 84% 0.0 mm CLR
05:00 13.8 °C 11.2 °C 997.7 hPa SSW 8.0 km/h 9.7 km/h 84% 0.0 mm CLR
05:05 13.9 °C 11.1 °C 997.6 hPa SW 6.9 km/h 7.4 km/h 83% 0.0 mm CLR
05:09 13.9 °C 11.1 °C 997.6 hPa SW 6.4 km/h 7.6 km/h 83% 0.0 mm CLR
05:15 13.9 °C 11.1 °C 997.6 hPa SSW 8.0 km/h 8.0 km/h 83% 0.0 mm CLR
05:19 13.9 °C 11.1 °C 997.6 hPa SSW 4.7 km/h 4.7 km/h 83% 0.0 mm CLR
05:25 13.9 °C 10.9 °C 997.6 hPa SSW 3.2 km/h 6.4 km/h 82% 0.0 mm CLR
05:29 13.9 °C 11.1 °C 997.6 hPa NW 2.3 km/h 3.9 km/h 83% 0.0 mm CLR
05:35 13.8 °C 10.9 °C 997.4 hPa NW 2.3 km/h 7.4 km/h 83% 0.0 mm CLR
05:39 13.6 °C 10.9 °C 997.4 hPa NW 2.9 km/h   84% 0.0 mm CLR
05:45 13.6 °C 10.9 °C 997.4 hPa WNW 3.2 km/h 8.0 km/h 84% 0.0 mm CLR
05:49 13.5 °C 11.0 °C 997.4 hPa SE 3.2 km/h 8.7 km/h 85% 0.0 mm CLR
05:55 13.4 °C 10.9 °C 997.4 hPa SSE 3.2 km/h 12.9 km/h 85% 0.0 mm CLR
06:00 13.3 °C 11.0 °C 997.4 hPa SSE 8.0 km/h 9.7 km/h 86% 0.0 mm CLR
06:05 13.2 °C 10.9 °C 997.4 hPa SSE 8.0 km/h 9.7 km/h 86% 0.0 mm CLR
06:09 13.2 °C 11.1 °C 997.4 hPa SSW 6.4 km/h 8.4 km/h 87% 0.0 mm CLR
06:15 13.2 °C 11.1 °C 997.4 hPa SW 6.4 km/h 7.4 km/h 87% 0.0 mm CLR
06:19 13.1 °C 11.0 °C 997.3 hPa WSW 5.0 km/h 7.6 km/h 87% 0.0 mm CLR
06:24 13.2 °C 11.3 °C 997.3 hPa WSW 5.0 km/h 7.4 km/h 88% 0.0 mm CLR
06:30 13.2 °C 11.3 °C 997.3 hPa WSW 3.2 km/h 4.8 km/h 88% 0.0 mm CLR
06:35 13.1 °C 11.0 °C 997.2 hPa SSW 3.2 km/h 6.4 km/h 87% 0.0 mm CLR
06:39 13.0 °C 10.9 °C 997.2 hPa SE 2.9 km/h 3.7 km/h 87% 0.0 mm CLR
06:45 12.9 °C 10.9 °C 997.2 hPa SE 2.9 km/h 7.4 km/h 88% 0.0 mm CLR
06:49 12.8 °C 10.8 °C 997.3 hPa SE 2.9 km/h   88% 0.0 mm CLR
06:55 12.8 °C 11.1 °C 997.3 hPa SE 3.2 km/h 4.8 km/h 89% 0.0 mm CLR
07:00 12.8 °C 11.1 °C 997.3 hPa SSE 1.6 km/h 8.0 km/h 89% 0.0 mm CLR
07:05 12.8 °C 11.1 °C 997.5 hPa SSW 1.6 km/h 8.0 km/h 89% 0.0 mm CLR
07:09 12.9 °C 10.9 °C 997.5 hPa SSE 4.7 km/h 11.1 km/h 88% 0.0 mm CLR
07:15 12.9 °C 10.9 °C 997.5 hPa SSW 3.2 km/h 9.7 km/h 88% 0.0 mm CLR
07:20 13.0 °C 10.9 °C 997.6 hPa SSW 6.9 km/h 9.3 km/h 87% 0.0 mm CLR
07:25 13.1 °C 11.0 °C 997.6 hPa South 8.0 km/h 12.9 km/h 87% 0.0 mm CLR
07:29 13.1 °C 11.0 °C 997.6 hPa SSE 8.4 km/h 9.3 km/h 87% 0.0 mm CLR
07:35 13.0 °C 10.9 °C 997.5 hPa SSE 8.0 km/h 12.9 km/h 87% 0.0 mm CLR
07:40 12.9 °C 10.8 °C 997.5 hPa South 4.8 km/h 8.0 km/h 87% 0.0 mm CLR
07:45 12.9 °C 10.8 °C 997.5 hPa SSW 4.8 km/h 8.0 km/h 87% 0.0 mm CLR
07:49 12.9 °C 10.8 °C 997.7 hPa WSW 4.7 km/h 7.6 km/h 87% 0.0 mm CLR
07:55 12.9 °C 10.8 °C 997.7 hPa SW 4.7 km/h 7.4 km/h 87% 0.0 mm CLR
08:00 13.0 °C 10.9 °C 997.7 hPa WSW 8.0 km/h 9.7 km/h 87% 0.0 mm CLR
08:05 13.1 °C 10.8 °C 997.7 hPa WSW 6.4 km/h 9.3 km/h 86% 0.0 mm CLR
08:09 13.1 °C 10.8 °C 997.7 hPa SW 5.0 km/h 5.6 km/h 86% 0.0 mm CLR
08:15 13.2 °C 10.9 °C 997.7 hPa SW 5.0 km/h   86% 0.0 mm CLR
08:19 13.2 °C 10.9 °C 997.6 hPa Calm     86% 0.0 mm CLR
08:25 13.2 °C 10.9 °C 997.6 hPa Calm   4.8 km/h 86% 0.0 mm CLR
08:29 13.2 °C 10.9 °C 997.6 hPa SW 2.3 km/h 3.7 km/h 86% 0.0 mm CLR
08:35 13.3 °C 11.0 °C 997.7 hPa SW 2.3 km/h   86% 0.0 mm CLR
08:39 13.3 °C 11.0 °C 997.7 hPa Calm     86% 0.0 mm CLR
08:45 13.3 °C 11.1 °C 997.7 hPa Calm     86% 0.0 mm CLR
08:50 13.3 °C 10.8 °C 997.9 hPa Calm     85% 0.0 mm CLR
08:55 13.3 °C 10.8 °C 997.9 hPa Calm   3.7 km/h 85% 0.0 mm CLR
09:00 13.4 °C 10.9 °C 997.9 hPa West 3.2 km/h 3.2 km/h 85% 0.0 mm CLR
09:05 13.4 °C 11.1 °C 997.6 hPa West 3.2 km/h 4.8 km/h 86% 0.0 mm CLR
09:10 13.7 °C 11.2 °C 997.6 hPa Calm   4.8 km/h 85% 0.0 mm CLR
09:15 13.8 °C 11.0 °C 997.6 hPa Calm   8.0 km/h 83% 0.0 mm CLR
09:20 14.2 °C 11.0 °C 997.7 hPa South 2.9 km/h 5.8 km/h 81% 0.0 mm CLR
09:25 14.5 °C 11.1 °C 997.7 hPa SE 2.9 km/h 7.4 km/h 80% 0.0 mm CLR
09:29 14.8 °C 11.2 °C 997.7 hPa SE 3.9 km/h 7.6 km/h 79% 0.0 mm CLR
09:35 15.1 °C 11.3 °C 997.6 hPa SE 3.9 km/h 7.6 km/h 78% 0.0 mm CLR
09:39 15.3 °C 11.3 °C 997.6 hPa SE 5.0 km/h 3.7 km/h 77% 0.0 mm CLR
09:45 15.6 °C 10.7 °C 997.6 hPa SSE 4.8 km/h 9.7 km/h 73% 0.0 mm CLR
09:49 15.7 °C 10.9 °C 997.6 hPa SSE 4.7 km/h 7.4 km/h 73% 0.0 mm CLR
09:55 16.0 °C 10.9 °C 997.6 hPa SW 4.7 km/h 7.4 km/h 72% 0.0 mm CLR
10:00 16.2 °C 10.9 °C 997.6 hPa SSW 3.2 km/h 8.0 km/h 71% 0.0 mm CLR
10:05 16.3 °C 10.8 °C 997.7 hPa SW 3.2 km/h 8.0 km/h 70% 0.0 mm CLR
10:09 16.3 °C 10.6 °C 997.7 hPa WSW 4.7 km/h 7.4 km/h 69% 0.0 mm CLR
10:15 16.4 °C 10.9 °C 997.7 hPa WSW 4.7 km/h 3.7 km/h 70% 0.0 mm CLR
10:19 16.5 °C 10.6 °C 997.9 hPa WSW 3.9 km/h 9.5 km/h 68% 0.0 mm CLR
10:25 16.7 °C 10.7 °C 997.9 hPa WSW 3.2 km/h 9.7 km/h 68% 0.0 mm CLR
10:30 16.7 °C 10.8 °C 997.9 hPa West 5.0 km/h   68% 0.0 mm CLR
10:35 16.9 °C 10.7 °C 997.8 hPa WSW 4.8 km/h 8.0 km/h 67% 0.0 mm CLR
10:40 17.1 °C 10.4 °C 997.8 hPa South 3.2 km/h 5.6 km/h 65% 0.0 mm CLR
10:45 17.4 °C 9.8 °C 997.8 hPa SSW 3.2 km/h 8.0 km/h 61% 0.0 mm CLR
10:50 17.7 °C 9.6 °C 997.8 hPa South 3.2 km/h 11.3 km/h 59% 0.0 mm CLR
10:55 17.9 °C 9.5 °C 997.8 hPa South 3.2 km/h 12.9 km/h 58% 0.0 mm CLR
11:00 17.9 °C 9.8 °C 997.8 hPa SSE 8.0 km/h 9.7 km/h 59% 0.0 mm CLR
11:05 18.2 °C 9.8 °C 997.8 hPa SSE 8.0 km/h 9.7 km/h 58% 0.0 mm CLR
11:09 18.4 °C 10.0 °C 997.8 hPa ESE 4.7 km/h 7.4 km/h 58% 0.0 mm CLR
11:15 18.6 °C 9.4 °C 997.8 hPa SSE 3.2 km/h 8.0 km/h 55% 0.0 mm CLR
11:19 18.7 °C 9.4 °C 998.0 hPa WSW 5.0 km/h 9.3 km/h 55% 0.0 mm CLR
11:25 18.8 °C 9.6 °C 998.0 hPa SW 4.8 km/h 9.7 km/h 55% 0.0 mm CLR
11:30 18.8 °C 9.6 °C 998.0 hPa WSW 4.8 km/h 11.3 km/h 55% 0.0 mm CLR
11:35 18.8 °C 8.7 °C 998.0 hPa West 5.0 km/h 9.3 km/h 52% 0.0 mm CLR
11:39 18.9 °C 9.4 °C 998.0 hPa NNW 5.0 km/h 8.4 km/h 54% 0.0 mm CLR
11:45 19.2 °C 9.7 °C 998.0 hPa North 5.0 km/h 7.4 km/h 54% 0.0 mm CLR
11:49 19.4 °C 9.6 °C 998.0 hPa WNW 3.9 km/h 7.4 km/h 53% 0.0 mm CLR
11:55 19.6 °C 9.2 °C 998.0 hPa WNW 3.9 km/h 13.0 km/h 51% 0.0 mm CLR
12:00 19.7 °C 8.9 °C 998.0 hPa West 4.8 km/h 12.9 km/h 50% 0.0 mm CLR
12:05 19.7 °C 9.3 °C 998.0 hPa West 5.8 km/h 9.3 km/h 51% 0.0 mm CLR
12:10 19.8 °C 9.4 °C 998.0 hPa WNW 4.8 km/h 11.3 km/h 51% 0.0 mm CLR
12:15 19.9 °C 8.9 °C 998.0 hPa SW 5.0 km/h 7.4 km/h 49% 0.0 mm CLR
12:19 20.0 °C 8.7 °C 998.1 hPa WNW 4.7 km/h 7.4 km/h 48% 0.0 mm CLR
12:25 20.1 °C 9.1 °C 998.1 hPa NNW 4.7 km/h 3.7 km/h 49% 0.0 mm CLR
12:30 20.2 °C 9.2 °C 998.1 hPa NW 3.2 km/h 8.0 km/h 49% 0.0 mm CLR
12:35 20.3 °C 9.2 °C 998.0 hPa NW 3.2 km/h 9.7 km/h 49% 0.0 mm CLR
12:40 20.2 °C 9.2 °C 998.0 hPa North 3.2 km/h 8.0 km/h 49% 0.0 mm CLR
12:45 20.3 °C 9.2 °C 998.0 hPa North 3.2 km/h 8.0 km/h 49% 0.0 mm CLR
12:50 20.4 °C 9.3 °C 998.0 hPa NW 3.2 km/h 3.7 km/h 49% 0.0 mm CLR
12:55 20.6 °C 8.9 °C 998.0 hPa NW 3.2 km/h 9.7 km/h 47% 0.0 mm CLR
13:00 20.7 °C 9.0 °C 998.0 hPa NNW 3.2 km/h 8.0 km/h 47% 0.0 mm CLR
13:05 20.8 °C 9.1 °C 997.6 hPa NNE 3.2 km/h 8.0 km/h 47% 0.0 mm CLR
13:10 20.8 °C 8.8 °C 997.6 hPa North 3.2 km/h 8.0 km/h 46% 0.0 mm CLR
13:15 20.9 °C 8.5 °C 997.6 hPa SW 3.9 km/h 3.7 km/h 45% 0.0 mm CLR
13:20 21.1 °C 8.7 °C 997.9 hPa WSW 3.2 km/h 11.3 km/h 45% 0.0 mm CLR
13:25 20.9 °C 8.8 °C 997.9 hPa WSW 3.2 km/h 8.0 km/h 46% 0.0 mm CLR
13:29 21.0 °C 8.9 °C 997.9 hPa NW 4.7 km/h 7.4 km/h 46% 0.0 mm CLR
13:35 21.1 °C 8.7 °C 997.7 hPa NNW 4.7 km/h   45% 0.0 mm CLR
13:39 21.2 °C 8.4 °C 997.7 hPa SSE 2.9 km/h 7.4 km/h 44% 0.0 mm CLR
13:45 21.1 °C 8.0 °C 997.7 hPa SE 2.9 km/h 16.7 km/h 43% 0.0 mm CLR
13:50 20.9 °C 8.2 °C 997.8 hPa SSE 9.7 km/h 16.1 km/h 44% 0.0 mm CLR
13:55 20.8 °C 8.8 °C 997.8 hPa SSE 9.7 km/h 14.5 km/h 46% 0.0 mm CLR
14:00 20.8 °C 8.8 °C 997.8 hPa SSE 9.7 km/h 16.1 km/h 46% 0.0 mm CLR
14:05 20.8 °C 8.8 °C 997.9 hPa SE 8.7 km/h 16.7 km/h 46% 0.0 mm CLR
14:10 20.8 °C 9.1 °C 997.9 hPa ESE 11.1 km/h 11.1 km/h 47% 0.0 mm CLR
14:15 20.8 °C 9.1 °C 997.9 hPa ESE 11.1 km/h 11.1 km/h 47% 0.0 mm CLR
14:20 20.8 °C 8.4 °C 998.0 hPa SSE 9.7 km/h 20.9 km/h 45% 0.0 mm CLR
14:25 20.8 °C 9.1 °C 998.0 hPa SW 8.7 km/h 7.4 km/h 47% 0.0 mm CLR
14:30 20.8 °C 9.1 °C 998.0 hPa SW 8.4 km/h 11.1 km/h 47% 0.0 mm CLR
14:35 20.9 °C 8.8 °C 998.0 hPa SW 8.0 km/h 14.5 km/h 46% 0.0 mm CLR
14:40 20.9 °C 8.5 °C 998.0 hPa SSW 10.0 km/h 16.7 km/h 45% 0.0 mm CLR
14:45 20.9 °C 8.8 °C 998.0 hPa SW 9.7 km/h 19.3 km/h 46% 0.0 mm CLR
14:49 20.8 °C 8.8 °C 998.1 hPa SW 10.0 km/h 16.7 km/h 46% 0.0 mm CLR
14:55 20.3 °C 9.2 °C 998.1 hPa WNW 10.0 km/h 20.4 km/h 49% 0.0 mm CLR
15:00 19.5 °C 10.2 °C 998.1 hPa West 14.5 km/h 25.7 km/h 55% 0.0 mm CLR
15:05 18.8 °C 10.1 °C 998.4 hPa West 14.0 km/h 25.9 km/h 57% 0.0 mm CLR
15:10 18.4 °C 10.7 °C 998.4 hPa WNW 14.5 km/h 37.0 km/h 61% 0.0 mm CLR
15:15 18.1 °C 10.9 °C 998.4 hPa WNW 14.5 km/h 37.0 km/h 63% 0.0 mm CLR
15:19 17.9 °C 11.0 °C 998.6 hPa WSW 16.1 km/h 19.8 km/h 64% 0.0 mm CLR
15:25 17.9 °C 10.8 °C 998.6 hPa West 16.1 km/h 14.8 km/h 63% 0.0 mm CLR
15:30 18.1 °C 10.9 °C 998.6 hPa West 11.9 km/h 16.7 km/h 63% 0.0 mm CLR
15:35 18.1 °C 11.2 °C 999.1 hPa West 11.9 km/h 20.4 km/h 64% 0.0 mm CLR
15:40 17.8 °C 11.3 °C 999.1 hPa WNW 11.9 km/h 29.6 km/h 66% 0.0 mm CLR
15:45 17.2 °C 11.6 °C 999.1 hPa West 11.3 km/h 25.7 km/h 70% 0.0 mm CLR
15:49 16.6 °C 11.3 °C 999.1 hPa WSW 14.8 km/h 14.8 km/h 71% 0.3 mm RA
15:55 16.4 °C 11.1 °C 999.1 hPa WSW 14.5 km/h 11.3 km/h 71% 0.0 mm RA
16:00 16.4 °C 11.3 °C 999.1 hPa South 8.0 km/h 14.5 km/h 72% 0.0 mm RA
16:04 16.5 °C 11.7 °C 999.0 hPa SSW 6.9 km/h 13.0 km/h 73% 0.5 mm
16:10 16.6 °C 11.7 °C 999.0 hPa South 9.7 km/h 16.1 km/h 73% 0.0 mm
16:15 16.8 °C 11.5 °C 999.0 hPa South 9.5 km/h 18.5 km/h 71% 0.5 mm CLR
16:20 16.9 °C 10.9 °C 999.0 hPa SSW 10.3 km/h 24.1 km/h 68% 0.8 mm RA
16:25 16.9 °C 10.3 °C 999.0 hPa SSW 11.3 km/h 33.8 km/h 65% 0.3 mm RA
16:30 16.8 °C 10.2 °C 999.0 hPa South 14.8 km/h 20.4 km/h 65% 0.8 mm
16:35 16.8 °C 9.9 °C 998.7 hPa SSW 14.8 km/h 20.4 km/h 64% 0.8 mm
16:40 16.9 °C 10.1 °C 998.7 hPa SW 14.8 km/h 20.4 km/h 64% 0.8 mm CLR
16:45 17.1 °C 9.8 °C 998.7 hPa SSW 14.8 km/h 18.5 km/h 62% 0.8 mm CLR
16:50 17.3 °C 10.2 °C 998.7 hPa SSW 13.0 km/h 16.7 km/h 63% 0.8 mm CLR
16:55 17.6 °C 10.4 °C 998.7 hPa South 13.0 km/h 13.0 km/h 63% 0.5 mm CLR
17:00 17.8 °C 9.7 °C 998.7 hPa SSW 11.3 km/h 19.3 km/h 59% 0.0 mm
17:05 18.1 °C 9.4 °C 998.6 hPa SSW 11.9 km/h 9.3 km/h 57% 0.3 mm CLR
17:10 18.4 °C 9.7 °C 998.6 hPa SSW 9.7 km/h 11.3 km/h 57% 0.0 mm
17:15 18.7 °C 9.2 °C 998.6 hPa South 8.7 km/h 20.4 km/h 54% 0.3 mm CLR
17:20 18.9 °C 8.8 °C 998.6 hPa South 10.3 km/h 18.5 km/h 52% 0.3 mm CLR
17:25 19.1 °C 8.7 °C 998.6 hPa SSW 10.3 km/h 20.4 km/h 51% 0.0 mm CLR
17:29 19.2 °C 8.5 °C 998.6 hPa South 12.2 km/h 18.5 km/h 50% 0.0 mm CLR
17:35 19.2 °C 8.8 °C 998.5 hPa SSW 12.9 km/h 24.1 km/h 51% 0.0 mm CLR
17:40 19.2 °C 10.4 °C 998.5 hPa South 12.9 km/h 30.6 km/h 57% 0.0 mm CLR
17:45 18.7 °C 11.3 °C 998.5 hPa South 13.7 km/h 27.8 km/h 62% 0.0 mm CLR
17:49 18.3 °C 11.4 °C 998.5 hPa SSE 19.0 km/h 29.6 km/h 64% 0.0 mm CLR
17:55 18.2 °C 11.5 °C 998.5 hPa SW 19.0 km/h 24.1 km/h 65% 0.0 mm CLR
18:00 18.2 °C 11.1 °C 998.5 hPa SSE 16.1 km/h 22.5 km/h 63% 0.0 mm CLR
18:05 18.1 °C 10.7 °C 998.4 hPa SSW 16.1 km/h 22.2 km/h 62% 0.0 mm CLR
18:10 18.0 °C 10.8 °C 998.4 hPa South 13.7 km/h 20.4 km/h 63% 0.0 mm CLR
18:15 17.9 °C 10.8 °C 998.4 hPa South 12.9 km/h 32.2 km/h 63% 0.0 mm CLR
18:20 17.9 °C 10.8 °C 998.7 hPa SSE 19.8 km/h 27.8 km/h 63% 0.0 mm CLR
18:25 17.9 °C 10.8 °C 998.7 hPa SSE 19.8 km/h 24.1 km/h 63% 0.0 mm CLR
18:30 17.8 °C 11.1 °C 998.7 hPa SSE 19.8 km/h 25.9 km/h 65% 0.0 mm CLR
18:35 17.7 °C 11.1 °C 998.5 hPa SSE 19.8 km/h 29.6 km/h 65% 0.0 mm CLR
18:40 17.7 °C 11.0 °C 998.5 hPa SSE 19.3 km/h 32.2 km/h 65% 0.0 mm CLR
18:45 17.6 °C 10.9 °C 998.5 hPa South 19.3 km/h 35.4 km/h 65% 0.0 mm CLR
18:50 17.4 °C 10.5 °C 998.5 hPa South 22.5 km/h 35.4 km/h 64% 0.0 mm CLR
18:55 17.3 °C 10.7 °C 998.5 hPa SE 21.7 km/h 33.3 km/h 65% 0.0 mm CLR
19:00 17.3 °C 10.9 °C 998.5 hPa South 22.5 km/h 33.8 km/h 66% 0.0 mm CLR
19:05 17.3 °C 10.9 °C 998.4 hPa SE 21.7 km/h 25.9 km/h 66% 0.0 mm CLR
19:10 17.4 °C 11.0 °C 998.4 hPa SSW 18.3 km/h 20.4 km/h 66% 0.0 mm CLR
19:15 17.6 °C 11.2 °C 998.4 hPa South 19.3 km/h 30.6 km/h 66% 0.0 mm CLR
19:20 17.7 °C 11.1 °C 998.4 hPa SSW 16.1 km/h 20.4 km/h 65% 0.0 mm CLR
19:25 17.8 °C 11.1 °C 998.4 hPa SSE 16.1 km/h 24.1 km/h 65% 0.0 mm CLR
19:30 17.8 °C 10.9 °C 998.4 hPa South 15.6 km/h 24.1 km/h 64% 0.0 mm CLR
19:35 17.7 °C 10.6 °C 998.4 hPa SSW 15.6 km/h 28.2 km/h 63% 0.0 mm CLR
19:40 17.6 °C 10.7 °C 998.4 hPa South 19.3 km/h 29.0 km/h 64% 0.0 mm CLR
19:45 17.5 °C 10.6 °C 998.4 hPa South 19.3 km/h 27.4 km/h 64% 0.0 mm CLR
19:50 17.4 °C 10.7 °C 998.5 hPa South 17.2 km/h 20.4 km/h 65% 0.0 mm CLR
19:55 17.2 °C 11.0 °C 998.5 hPa South 17.2 km/h 20.4 km/h 67% 0.0 mm CLR
20:00 17.1 °C 10.7 °C 998.5 hPa South 14.5 km/h 25.7 km/h 66% 0.0 mm CLR
20:05 17.1 °C 10.9 °C 998.7 hPa South 14.5 km/h 22.5 km/h 67% 0.0 mm CLR
20:10 17.0 °C 10.8 °C 998.7 hPa SSW 13.7 km/h 20.4 km/h 67% 0.0 mm CLR
20:15 16.9 °C 10.7 °C 998.7 hPa South 12.9 km/h 20.9 km/h 67% 0.0 mm CLR
20:20 16.9 °C 10.7 °C 998.9 hPa SSW 11.9 km/h 14.8 km/h 67% 0.0 mm CLR
20:25 16.8 °C 10.6 °C 998.9 hPa SSW 11.9 km/h 13.0 km/h 67% 0.0 mm CLR
20:29 16.8 °C 10.4 °C 998.9 hPa South 10.3 km/h 16.7 km/h 66% 0.0 mm CLR
20:35 16.8 °C 10.4 °C 999.1 hPa South 10.3 km/h 13.0 km/h 66% 0.0 mm CLR
20:40 16.7 °C 10.6 °C 999.1 hPa South 9.7 km/h 16.1 km/h 67% 0.0 mm CLR
20:45 16.7 °C 10.6 °C 999.1 hPa South 9.7 km/h 19.3 km/h 67% 0.0 mm CLR
20:49 16.6 °C 10.4 °C 999.4 hPa SSE 11.1 km/h 14.8 km/h 67% 0.0 mm CLR
20:55 16.6 °C 10.4 °C 999.4 hPa SSE 11.1 km/h 9.5 km/h 67% 0.0 mm CLR
21:00 16.5 °C 10.3 °C 999.4 hPa South 9.7 km/h 16.1 km/h 67% 0.0 mm CLR
21:05 16.4 °C 10.1 °C 999.8 hPa South 9.7 km/h 14.5 km/h 66% 0.0 mm CLR
21:10 16.5 °C 9.9 °C 999.8 hPa South 9.7 km/h 16.1 km/h 65% 0.0 mm CLR
21:15 16.6 °C 9.5 °C 999.8 hPa South 9.5 km/h 14.8 km/h 63% 0.0 mm CLR
21:20 16.7 °C 9.4 °C 1000.4 hPa South 11.3 km/h 16.1 km/h 62% 0.0 mm CLR
21:25 16.7 °C 9.4 °C 1000.4 hPa SW 11.1 km/h 11.1 km/h 62% 0.0 mm CLR
21:30 16.8 °C 9.0 °C 1000.4 hPa SSW 9.7 km/h 16.1 km/h 60% 0.0 mm CLR
21:35 16.8 °C 8.5 °C 1001.0 hPa SW 9.7 km/h 17.7 km/h 58% 0.0 mm CLR
21:40 16.9 °C 8.1 °C 1001.0 hPa SW 9.7 km/h 16.1 km/h 56% 0.0 mm CLR
21:45 16.9 °C 7.8 °C 1001.0 hPa WNW 8.7 km/h 14.8 km/h 55% 0.0 mm CLR
21:50 16.8 °C 7.7 °C 1001.4 hPa West 9.7 km/h 19.3 km/h 55% 0.0 mm CLR
21:55 16.6 °C 7.8 °C 1001.4 hPa NNW 8.7 km/h 7.4 km/h 56% 0.0 mm CLR
22:00 16.3 °C 7.0 °C 1001.4 hPa NW 8.0 km/h 12.9 km/h 54% 0.0 mm CLR
22:05 16.1 °C 6.2 °C 1001.9 hPa NW 8.0 km/h 24.1 km/h 52% 0.0 mm CLR
22:10 15.8 °C 5.9 °C 1001.9 hPa WNW 9.7 km/h 24.1 km/h 52% 0.0 mm CLR
22:15 15.6 °C 5.8 °C 1001.9 hPa NW 10.0 km/h 16.7 km/h 52% 0.0 mm CLR
22:20 15.4 °C 5.6 °C 1002.2 hPa NW 10.0 km/h 16.7 km/h 52% 0.0 mm CLR
22:25 15.4 °C 5.6 °C 1002.2 hPa WNW 10.0 km/h 9.3 km/h 52% 0.0 mm CLR
22:30 15.3 °C 5.8 °C 1002.2 hPa WNW 9.7 km/h 12.9 km/h 53% 0.0 mm CLR
22:35 15.3 °C 6.1 °C 1002.7 hPa West 9.7 km/h 9.7 km/h 54% 0.0 mm CLR
22:40 15.3 °C 6.1 °C 1002.7 hPa WNW 3.9 km/h 9.3 km/h 54% 0.0 mm CLR
22:45 15.2 °C 5.9 °C 1002.7 hPa WNW 3.2 km/h 9.7 km/h 54% 0.0 mm CLR
22:50 15.1 °C 5.8 °C 1003.2 hPa WNW 8.0 km/h 11.3 km/h 54% 0.0 mm CLR
22:55 15.1 °C 5.8 °C 1003.2 hPa WNW 6.4 km/h 8.4 km/h 54% 0.0 mm CLR
23:00 15.1 °C 6.1 °C 1003.2 hPa WNW 3.2 km/h 12.9 km/h 55% 0.0 mm CLR
23:05 15.1 °C 5.8 °C 1003.4 hPa WNW 4.7 km/h 7.4 km/h 54% 0.0 mm CLR
23:10 15.1 °C 5.6 °C 1003.4 hPa SW 6.4 km/h 7.4 km/h 53% 0.0 mm CLR
23:15 15.2 °C 5.4 °C 1003.4 hPa SSW 6.4 km/h 16.7 km/h 52% 0.0 mm CLR
23:20 15.4 °C 5.0 °C 1003.7 hPa SSW 9.7 km/h 19.3 km/h 50% 0.0 mm CLR
23:25 15.6 °C 4.9 °C 1003.7 hPa SSW 9.7 km/h 22.5 km/h 49% 0.0 mm CLR
23:30 15.5 °C 4.8 °C 1003.7 hPa SSW 12.9 km/h 24.1 km/h 49% 0.0 mm CLR
23:35 15.4 °C 5.0 °C 1003.8 hPa SW 12.9 km/h 19.3 km/h 50% 0.0 mm CLR
23:40 15.4 °C 5.0 °C 1003.8 hPa SW 11.3 km/h 24.1 km/h 50% 0.0 mm CLR
23:45 15.3 °C 5.2 °C 1003.8 hPa SW 11.1 km/h 18.5 km/h 51% 0.0 mm CLR
23:50 15.2 °C 5.1 °C 1003.9 hPa SSW 9.5 km/h 16.7 km/h 51% 0.0 mm CLR
23:55 15.2 °C 5.1 °C 1003.9 hPa WSW 9.5 km/h 15.6 km/h 51% 0.0 mm CLR
Murcia-Puente Tocinos, España
Compliments of Weather Underground - 2.75 mb

La estación de MeteoMurcia.com, publica sus datos en los siguientes proyectos:

Weather Underground PWS IMURCIAP2 Meteoclimatic www.awekas.at

W3Counter
Web Analytics